DECAYED

SL-16 DEB, 22477 (Decayed)

Orbit data source: Space-Track

SL-16 DEB, 22477 was space debris in LEO originally from a launch on Fri, 25 Dec 1992 UTC launched from the Tyuratam Missile And Space Complex (TTMTR). Debris objects in space refer to the collection of defunct objects orbiting the Earth. Examples of debris include non-operational satellites, rocket bodies, and fragments generated from explosions, collisions, or faulty payload assembly.

Not visible in the next 10 days
Identifier
22477, 1992-093FS
Orbit
Decayed
Country
Flag of CISCIS
Related business
Manufacturer
Unknown
Mission
Decayed spacecraft
Bus & Motor
Unknown
Mass
Unknown
Launch date (UTC)
1992-12-25 (33 years ago)
Launch vehicle
Unknown
Launch site
Tyuratam Missile And Space Complex (TTMTR)
Object type
Payload
Rocket body
Debris
Shape & HBR
Unknown shape, 0.2 m
Radar Cross Section
Small (<0.1 m²)

Expand to show TLE details & history
Last TLE update: 4 months ago

TLE from 4 months ago
0 SL-16 DEB
1 22477U 92093FS  25174.34381547  .13940358  37868-5  24525-2 0  9999
2 22477  70.7956   7.7262 0016864 261.5891  98.3431 16.32065488724531
Epoch: 2025-06-23T08:15Z
TLE epoch observation values (Epoch: 2025-06-23T08:15:05.656Z)
Latitude
-0°
Longitude
-27.80281°
Altitude
191.245 km
Speed
7.791 km/s
True Right ascension
00h 30m 54s
True Declination
0° 00' 00"
Sunlit
Object was in daylight at epoch
Visualization orbit readout
Latitude
Unknown
Longitude
Unknown
Altitude
Unknown
Speed
Unknown
Apparent Right ascension
Unknown
Apparent Declination
Unknown
Sunlit
N/A
Visualization observer readout
Local Sidereal Time
18:17:28
Azimuth
Unknown
Elevation
Unknown
Doppler factor
Unknown
Orbital elements
Apogee altitude
195.802 km
Perigee altitude
173.666 km
Semi-major axis
6,562.871 km
Eccentricity
0.00169
Inclination
70.7956°
RAAN
7.7262°
Arg. of periapsis
261.5891°
True anomaly
98.53424°
Mean anomaly
98.3431°
Eccentric anomaly
98.43868°
Mean motion
4.08228 °/min
Orbital period
88.19 mins
BSTAR
0.0024525
Loading maneuver chart data...
Computing Atmospheric mass density...
Loading historical data...
Loading historical data...
Loading historical data...
Loading historical data...
Loading historical data...
Loading historical data...
Loading historical data...

Documentation

Showing up to 5 results
|